SCP
0 0 0 -0 -0 -0 -0 -0 -0 -0 -0 -0 -0 -0 -0 -0 -0 0 0 0 0 0 0 0 0 0 0 -0 -0 -0 0 -0 -0
0 0 0 -0 -0 -0 -0 -0 -1 -1 -1 -0 -0 -0 0 0 0 0 0 0 1 0 0 0 0 -0 -0 -0 -0 0 0 0 0
0 0 0 0 0 -0 -0 -1 -1 -1 -1 -1 -1 -1 -0 0 -0 0 0 1 0 0 1 0 0 -0 -0 -0 -0 0 0 0 0
-0 0 0 0 0 0 -0 0 0 -0 -0 -1 -1 -1 -1 -0 -0 -0 -0 0 1 1 1 1 0 0 -0 -0 -0 0 0 -0 -0
0 0 0 0 0 0 0 0 0 -0 -0 -0 -1 -1 -0 -1 -0 -1 -1 -1 -0 0 1 1 1 0 0 -0 -0 0 0 -0 -0
0 0 0 0 0 0 0 0 0 0 0 0 -0 0 -0 0 -0 -0 -1 -1 -1 -0 0 1 0 0 0 -0 -0 -0 0 -0 -0
0 0 0 0 0 0 0 0 1 1 0 0 0 -0 -0 -0 -1 -1 -1 -0 -0 -1 -0 0 0 0 1 0 0 0 0 0 0
0 0 0 0 0 0 0 1 1 1 0 1 0 0 -0 -1 -1 -0 -0 -1 -1 -1 -1 -0 -0 0 1 1 0 0 0 0 0
-0 0 0 0 0 0 0 0 1 1 0 0 1 1 -0 -0 0 -0 -1 -0 -0 -0 -0 -0 -0 -0 1 1 1 0 0 0 0
0 0 0 0 0 0 0 0 1 1 1 1 1 1 2 1 1 0 -0 0 0 -0 -0 0 0 0 0 1 1 0 0 0 0
0 0 0 0 0 0 1 0 0 1 1 1 1 2 2 1 1 1 1 1 0 1 1 1 1 0 0 1 1 0 0 0 1
0 0 0 0 0 0 0 0 1 1 1 2 1 1 1 1 1 2 2 1 1 2 2 2 1 1 0 0 1 0 0 0 1
0 0 0 0 0 0 0 0 0 1 1 1 1 1 1 2 3 3 3 3 3 3 3 3 2 2 1 0 0 0 0 0 2
0 0 0 0 0 0 0 0 0 0 1 1 1 1 2 2 3 3 3 4 5 3 3 4 4 3 3 2 1 1 0 0 3
1 1 1 0 1 2 1 1 1 1 1 1 1 2 2 3 3 2 2 3 4 5 5 4 3 4 4 4 5 3 0 0 1
1 0 1 3 2 2 2 2 2 2 2 2 2 2 2 2 2 3 3 3 4 5 5 6 6 6 4 3 4 5 0 0 0
0 0 0 0 0 0 1 1 1 1 1 3 2 1 2 2 2 3 3 3 5 7 8 5 7 5 6 8 5 4 0 0 0
0 0 0 0 1 1 1 1 1 0 0 0 1 2 2 1 1 2 3 5 7 8 8 10 11 11 12 11 5 1 0 0 0
0 0 2 3 3 3 1 0 0 0 0 0 0 0 0 1 1 1 2 4 8 0 1 7 8 10 12 6 1 0 0 0 0
0 0 0 0 0 0 1 1 1 1 1 1 0 0 0 0 1 2 2 4 6 4 1 0 1 3 2 0 0 0 0 0 0
Wind_Speed_500mb
56 62 72 79 87 90 98 96 97 99 99 97 97 96 94 90 87 86 80 72 64 55 51 49 49 47 49 46 39 35 32 32 28
46 58 67 77 91 93 104 104 103 100 101 101 101 100 98 96 94 93 89 81 71 64 54 51 50 49 49 48 45 41 37 35 32
51 54 55 66 75 87 102 103 106 105 102 100 97 95 98 99 97 94 92 89 80 73 64 54 57 53 55 51 48 44 43 39 37
56 55 57 62 68 74 89 92 94 107 110 108 107 103 97 95 95 92 90 91 84 74 71 64 61 62 59 62 57 52 50 47 43
37 43 54 56 54 58 65 85 94 98 104 107 110 112 107 103 96 94 93 91 85 76 74 70 68 64 68 67 64 61 58 53 51
36 31 42 53 42 52 65 75 86 94 99 100 99 105 109 109 107 103 103 96 89 85 79 76 72 69 73 73 72 71 66 62 59
34 35 39 34 44 55 60 73 82 88 96 93 95 96 100 104 105 105 105 100 92 90 84 82 78 76 72 76 76 78 74 69 67
35 46 42 40 41 46 51 69 82 86 89 94 92 96 99 95 93 95 98 101 94 92 91 87 81 80 78 78 80 83 83 80 75
55 64 47 41 47 45 41 44 64 79 85 92 95 96 95 93 92 90 93 95 93 91 91 90 87 88 86 82 88 89 85 83 81
60 71 75 76 71 59 48 44 49 61 78 86 92 93 91 94 92 91 91 90 90 89 93 91 93 91 91 89 90 94 90 87 82
73 81 78 78 69 70 70 61 56 55 65 77 83 86 87 90 92 93 93 91 89 88 92 95 95 94 95 93 93 96 96 94 89
85 85 92 80 72 65 59 61 53 58 63 71 75 79 81 85 90 90 90 94 91 90 91 96 99 97 97 99 97 96 95 93 92
65 64 62 55 47 36 27 39 40 50 63 69 73 75 79 79 82 84 85 89 92 90 89 93 99 102 99 99 98 98 96 92 92
44 49 45 41 44 44 38 37 36 42 51 63 67 67 67 67 71 77 78 81 81 85 86 91 100 105 105 99 96 100 97 88 87
29 30 33 36 40 38 33 29 24 23 27 32 37 41 47 56 58 62 66 74 76 81 81 84 94 100 107 109 103 102 102 95 86
30 31 31 31 33 34 30 27 23 21 22 22 24 29 34 39 45 51 58 65 73 80 83 88 86 89 86 100 100 99 102 94 87
40 43 47 48 44 46 46 38 30 25 20 14 11 14 21 29 39 47 54 60 67 78 78 83 83 86 92 87 80 83 106 91 85
22 37 39 39 38 39 36 30 24 18 13 10 9 11 16 21 30 42 51 61 67 78 88 88 93 94 93 84 100 109 92 72 83
26 31 33 34 33 32 28 23 17 11 5 4 9 14 18 25 33 40 48 57 70 80 89 89 93 93 94 95 94 91 76 73 75
33 33 35 36 37 34 29 22 17 14 12 14 19 21 23 23 24 26 33 45 67 77 87 91 89 89 93 84 86 85 76 94 75
Wind_Direction_500mb
217 213 216 217 219 220 228 229 230 228 227 227 227 229 230 231 234 236 237 238 238 238 240 242 239 232 232 233 238 247 248 251 246
217 218 217 219 218 221 230 232 232 233 232 231 231 230 231 233 235 236 237 238 237 237 237 239 240 232 233 234 237 239 242 240 239
225 226 222 223 220 218 226 232 233 233 235 236 234 234 234 234 235 236 238 239 239 237 237 234 238 235 234 233 233 233 234 234 234
223 225 226 225 222 223 228 228 228 234 235 235 236 237 236 236 235 237 238 239 239 239 239 236 236 234 234 233 233 230 230 232 235
226 231 232 239 230 225 221 226 231 233 238 236 237 238 237 237 237 237 238 237 237 236 237 235 235 235 233 232 232 230 229 231 233
248 246 244 239 230 227 239 239 234 230 235 240 239 238 238 237 238 239 239 238 237 235 235 234 233 233 232 231 230 229 230 232 234
263 258 246 232 235 245 246 244 240 239 235 235 236 235 237 237 237 238 240 241 238 236 233 234 232 234 234 232 231 229 230 231 233
283 275 265 252 250 251 249 246 243 241 240 235 231 234 237 240 240 239 240 241 239 237 233 231 231 232 233 233 231 230 228 230 233
271 272 268 271 269 251 259 257 249 243 236 232 233 234 238 242 240 239 239 239 238 238 236 231 230 230 231 232 231 230 228 230 232
247 255 261 268 268 265 261 265 273 246 240 231 231 234 236 236 239 239 237 237 237 234 233 230 229 230 231 231 231 231 229 229 232
251 256 258 261 262 262 264 267 258 248 238 236 235 235 236 237 238 240 240 237 236 235 232 231 228 229 231 232 234 233 232 232 235
258 260 266 269 267 271 267 255 262 245 237 236 236 236 239 241 241 239 238 239 238 234 232 233 230 230 231 232 234 235 234 233 234
261 263 260 256 259 251 245 251 250 236 235 235 238 243 245 243 243 242 241 243 242 238 233 231 233 232 232 236 236 238 237 234 233
255 258 252 241 234 238 252 248 244 236 231 238 247 244 246 247 247 247 246 243 241 241 239 237 234 233 233 235 239 240 240 237 233
233 232 224 216 214 216 230 228 223 222 224 229 234 239 242 247 250 249 243 243 243 241 238 239 238 237 238 235 234 237 240 236 232
177 173 168 170 183 189 192 196 192 193 202 214 227 236 238 242 248 250 246 244 240 237 235 233 232 231 233 242 239 241 240 238 230
149 141 136 134 130 125 122 124 132 143 142 148 182 221 244 251 251 248 245 241 241 236 233 230 225 226 232 236 237 253 248 232 224
141 134 130 127 124 118 114 117 119 126 140 167 203 232 249 256 255 253 251 249 244 245 247 244 234 227 230 224 232 235 240 228 207
113 115 114 109 103 103 101 102 106 103 76 332 299 291 286 277 264 257 252 247 254 247 243 246 248 244 241 237 236 231 224 219 193
102 100 99 95 91 87 82 75 66 47 21 355 336 320 309 302 290 270 263 258 253 253 252 244 240 234 235 237 229 227 211 171 159
Wind_Speed_850mb
56 62 72 79 87 90 98 96 97 99 99 97 97 96 94 90 87 86 80 72 64 55 51 49 49 47 49 46 39 35 32 32 28
46 58 67 77 91 93 104 104 103 100 101 101 101 100 98 96 94 93 89 81 71 64 54 51 50 49 49 48 45 41 37 35 32
51 54 55 66 75 87 102 103 106 105 102 100 97 95 98 99 97 94 92 89 80 73 64 54 57 53 55 51 48 44 43 39 37
56 55 57 62 68 74 89 92 94 107 110 108 107 103 97 95 95 92 90 91 84 74 71 64 61 62 59 62 57 52 50 47 43
37 43 54 56 54 58 65 85 94 98 104 107 110 112 107 103 96 94 93 91 85 76 74 70 68 64 68 67 64 61 58 53 51
36 31 42 53 42 52 65 75 86 94 99 100 99 105 109 109 107 103 103 96 89 85 79 76 72 69 73 73 72 71 66 62 59
34 35 39 34 44 55 60 73 82 88 96 93 95 96 100 104 105 105 105 100 92 90 84 82 78 76 72 76 76 78 74 69 67
35 46 42 40 41 46 51 69 82 86 89 94 92 96 99 95 93 95 98 101 94 92 91 87 81 80 78 78 80 83 83 80 75
55 64 47 41 47 45 41 44 64 79 85 92 95 96 95 93 92 90 93 95 93 91 91 90 87 88 86 82 88 89 85 83 81
60 71 75 76 71 59 48 44 49 61 78 86 92 93 91 94 92 91 91 90 90 89 93 91 93 91 91 89 90 94 90 87 82
73 81 78 78 69 70 70 61 56 55 65 77 83 86 87 90 92 93 93 91 89 88 92 95 95 94 95 93 93 96 96 94 89
85 85 92 80 72 65 59 61 53 58 63 71 75 79 81 85 90 90 90 94 91 90 91 96 99 97 97 99 97 96 95 93 92
65 64 62 55 47 36 27 39 40 50 63 69 73 75 79 79 82 84 85 89 92 90 89 93 99 102 99 99 98 98 96 92 92
44 49 45 41 44 44 38 37 36 42 51 63 67 67 67 67 71 77 78 81 81 85 86 91 100 105 105 99 96 100 97 88 87
29 30 33 36 40 38 33 29 24 23 27 32 37 41 47 56 58 62 66 74 76 81 81 84 94 100 107 109 103 102 102 95 86
30 31 31 31 33 34 30 27 23 21 22 22 24 29 34 39 45 51 58 65 73 80 83 88 86 89 86 100 100 99 102 94 87
40 43 47 48 44 46 46 38 30 25 20 14 11 14 21 29 39 47 54 60 67 78 78 83 83 86 92 87 80 83 106 91 85
22 37 39 39 38 39 36 30 24 18 13 10 9 11 16 21 30 42 51 61 67 78 88 88 93 94 93 84 100 109 92 72 83
26 31 33 34 33 32 28 23 17 11 5 4 9 14 18 25 33 40 48 57 70 80 89 89 93 93 94 95 94 91 76 73 75
33 33 35 36 37 34 29 22 17 14 12 14 19 21 23 23 24 26 33 45 67 77 87 91 89 89 93 84 86 85 76 94 75
Wind_Direction_850mb
217 213 216 217 219 220 228 229 230 228 227 227 227 229 230 231 234 236 237 238 238 238 240 242 239 232 232 233 238 247 248 251 246
217 218 217 219 218 221 230 232 232 233 232 231 231 230 231 233 235 236 237 238 237 237 237 239 240 232 233 234 237 239 242 240 239
225 226 222 223 220 218 226 232 233 233 235 236 234 234 234 234 235 236 238 239 239 237 237 234 238 235 234 233 233 233 234 234 234
223 225 226 225 222 223 228 228 228 234 235 235 236 237 236 236 235 237 238 239 239 239 239 236 236 234 234 233 233 230 230 232 235
226 231 232 239 230 225 221 226 231 233 238 236 237 238 237 237 237 237 238 237 237 236 237 235 235 235 233 232 232 230 229 231 233
248 246 244 239 230 227 239 239 234 230 235 240 239 238 238 237 238 239 239 238 237 235 235 234 233 233 232 231 230 229 230 232 234
263 258 246 232 235 245 246 244 240 239 235 235 236 235 237 237 237 238 240 241 238 236 233 234 232 234 234 232 231 229 230 231 233
283 275 265 252 250 251 249 246 243 241 240 235 231 234 237 240 240 239 240 241 239 237 233 231 231 232 233 233 231 230 228 230 233
271 272 268 271 269 251 259 257 249 243 236 232 233 234 238 242 240 239 239 239 238 238 236 231 230 230 231 232 231 230 228 230 232
247 255 261 268 268 265 261 265 273 246 240 231 231 234 236 236 239 239 237 237 237 234 233 230 229 230 231 231 231 231 229 229 232
251 256 258 261 262 262 264 267 258 248 238 236 235 235 236 237 238 240 240 237 236 235 232 231 228 229 231 232 234 233 232 232 235
258 260 266 269 267 271 267 255 262 245 237 236 236 236 239 241 241 239 238 239 238 234 232 233 230 230 231 232 234 235 234 233 234
261 263 260 256 259 251 245 251 250 236 235 235 238 243 245 243 243 242 241 243 242 238 233 231 233 232 232 236 236 238 237 234 233
255 258 252 241 234 238 252 248 244 236 231 238 247 244 246 247 247 247 246 243 241 241 239 237 234 233 233 235 239 240 240 237 233
233 232 224 216 214 216 230 228 223 222 224 229 234 239 242 247 250 249 243 243 243 241 238 239 238 237 238 235 234 237 240 236 232
177 173 168 170 183 189 192 196 192 193 202 214 227 236 238 242 248 250 246 244 240 237 235 233 232 231 233 242 239 241 240 238 230
149 141 136 134 130 125 122 124 132 143 142 148 182 221 244 251 251 248 245 241 241 236 233 230 225 226 232 236 237 253 248 232 224
141 134 130 127 124 118 114 117 119 126 140 167 203 232 249 256 255 253 251 249 244 245 247 244 234 227 230 224 232 235 240 228 207
113 115 114 109 103 103 101 102 106 103 76 332 299 291 286 277 264 257 252 247 254 247 243 246 248 244 241 237 236 231 224 219 193
102 100 99 95 91 87 82 75 66 47 21 355 336 320 309 302 290 270 263 258 253 253 252 244 240 234 235 237 229 227 211 171 159